Tracking 27079 objects as of 23-Mar-2023
HD Live streaming from Space Station
objects crossing your sky now

SL-14 R/B

Track SL-14 R/B now!
10-day predictions
SL-14 R/B is classified as:


NORAD ID: 16882
Int'l Code: 1986-055B
Perigee: 611.9 km
Apogee: 637.7 km
Inclination: 82.5 °
Period: 97.1 minutes
Semi major axis: 6995 km
RCS: 4.759 m2 (large)
Launch date: July 28, 1986
Source: Commonwealth of Independent States (former USSR) (CIS)
Launch site: PLESETSK MISSILE AND SPACE COMPLEX (PKMTR)

Note: This is a ROCKET BODY
Your satellite tracking list
Your tracking list is empty




NASA's NSSDC Master Catalog

Two Line Element Set (TLE):
1 16882U 86055B   23082.42690782  .00001071  00000-0  12652-3 0  9990
2 16882  82.5196  62.3243 0018411 310.8111 163.4394 14.83695935958812
Source of the keplerian elements: AFSPC